Location: Aixovall
(42.4760°N, 1.4902°E)
Time: 07:14:07
(UTC+00:00)

Cosmos 2266 Rocket - Pass Details

Date: 26 November 2025
Orbit: 933 x 1006 km, 82.9° (Epoch: 08 December)

Event Time Altitude Azimuth Distance (km) Brightness Sun altitude
Rises 18:44:36 0° 355° (N) 3,702 7.0 -25.5°
Reaches altitude 10° 18:47:11 10° 358° (N) 2,740 6.3 -25.9°
Enters shadow 18:51:51 49° 24° (NNE) 1,240 4.3 -26.8°
